Regional Weather Roundup
Issued by NWS

Current Version | Previous Version | Text Only | Print | Product List | Glossary On
Versions: 1 2 3 4 5 6 7 8 9 10 11 12 13 14 15 16 17 18 19 20 21 22 23 24 25 26 27 28 29 30 31 32 33 34 35 36 37 38 39 40 41 42 43 44 45 46 47 48 49 50
000
ASUS46 KPQR 042310
RWROR

OREGON REGIONAL WEATHER ROUNDUP
NATIONAL WEATHER SERVICE PORTLAND OR
400 PM PDT MON MAY 04 2015

NOTE: "FAIR" INDICATES FEW OR NO CLOUDS BELOW 12,000 FEET WITH
NO SIGNIFICANT WEATHER AND/OR OBSTRUCTIONS TO VISIBILITY.

ORZ001>013-050000-
NORTHWEST OREGON


CITY           SKY/WX    TMP DP  RH WIND       PRES   REMARKS
ASTORIA        CLOUDY    56  45  66 SW14G22   30.03R
NEWPORT        CLOUDY    55  45  67 SW10      30.10
PORTLAND       PTSUNNY   62  43  49 NE5       29.99F
VANCOUVER WA   PTSUNNY   63  40  42 CALM      29.98F
SCAPPOOSE      CLOUDY    62  44  51 E3        29.98F
HILLSBORO      MOSUNNY   63  40  42 VRB3      29.98F
AURORA         PTSUNNY   63  43  48 SW8       30.01F
MCMINNVILLE    SUNNY     64  44  48 W6        30.01F
SALEM          PTSUNNY   63  42  46 CALM      30.00F
CORVALLIS      SUNNY     66  43  42 N14       30.03S
EUGENE         MOSUNNY   64  42  44 SW15      30.01F
$$

ORZ021-028-050000-
SOUTHWEST OREGON


CITY           SKY/WX    TMP DP  RH WIND       PRES   REMARKS
NORTH BEND     MOSUNNY   57  45  62 W9        30.09S
BROOKINGS      SUNNY     58  45  62 NW12      30.05F
ROSEBURG       SUNNY     67  43  41 VRB6      30.01F
SEXTON SUMMIT  SUNNY     60  39  45 MISG      29.99F
MEDFORD        MOSUNNY   78  42  27 NW14G21   29.88F
$$

ORZ014>016-041-050000-
COLUMBIA GORGE


CITY           SKY/WX    TMP DP  RH WIND       PRES   REMARKS
TROUTDALE      CLOUDY    64  44  48 VRB7      29.98F
THE DALLES     SUNNY     66  37  34 NW32G44   29.85S
$$

ORZ029>031-041-044-049-050-061>064-502-503-505>511-050000-
EASTERN OREGON


CITY           SKY/WX    TMP DP  RH WIND       PRES   REMARKS
REDMOND        SUNNY     73  29  19 NW22      29.84F
BEND             N/A    N/A N/A N/A MISG        N/A
PRINEVILLE     SUNNY     73  25  16 NW21      29.85F
KLAMATH FALLS  SUNNY     74  26  16 W20G25    29.89F
LAKEVIEW       PTSUNNY   73  28  19 SW16      29.90F
HERMISTON      SUNNY     81  36  19 W15G21    29.75F
PENDLETON      SUNNY     76  33  21 W15G23    29.77F
JOHN DAY       MOSUNNY   77  34  21 NW12      29.81F
MEACHAM        SUNNY     69  30  23 VRB6      29.85F
LA GRANDE      MOSUNNY   79  36  21 SE6       29.76F
BAKER CITY     PTSUNNY   77  37  23 SE17      29.80F
BURNS          MOSUNNY   76  26  15 SW8G17    29.83F
ROME             N/A     77  25  14 VRB3      29.79F
ONTARIO        SUNNY     84  38  19 SE3       29.75F
$$



USA.gov is the U.S. government's official web portal to all federal, state and local government web resources and services.